#timestamp,LO_Frequency,Hit 
1505070015.0,286046998.3,N
1505070015.9,286046998.3,N
1505070035.8,286046998.4,N
1505070055.6,286046995.3,N
1505070075.4,286046996.4,N
1505070095.3,286046997.9,N
1505070115.1,286046995.1,N
1505070135.8,286046995.1,N
1505070155.7,286046996.1,N
1505070175.5,286046995.2,N
1505070195.3,286046998.8,N
1505070215.2,286047001.2,N
1505070235.9,286046998.5,N
1505070255.7,286046999.4,N
1505070275.5,286046998.6,N
1505070295.4,286047002.0,N
1505070315.2,286047000.5,N
1505070335.0,286047001.1,N
1505070335.9,286047001.1,N
1505070355.8,286046998.6,N
1505070375.6,286046998.7,N
1505070395.4,286046996.6,N
1505070415.3,286046999.1,N
1505070435.1,286046996.9,N
1505070455.8,286046997.5,N
1505070475.7,286046998.7,N
1505070495.5,286047000.4,N
1505070515.3,286047002.7,N
1505070535.2,286046999.9,N
1505070555.9,286046999.9,N
1505070575.7,286047004.0,N
1505070595.6,286047002.0,N
1505070615.4,286047001.5,N
1505070635.2,286047004.0,N
1505070655.0,286047000.7,N
1505070656.0,286047000.7,N
1505070675.8,286046998.3,N
1505070695.6,286046998.4,N
1505070715.4,286047002.8,N
1505070735.3,286047000.4,N
1505070755.1,286046998.7,N
1505070775.8,286047000.5,N
1505070795.7,286046999.8,N
1505070815.5,286046998.1,N
1505070835.3,286046998.3,N
1505070855.2,286047000.9,N
1505070875.9,286046999.0,N
1505070895.7,286047002.4,N
1505070915.6,286047005.2,N
1505070935.4,286047003.1,N
1505070955.2,286047004.7,N
1505070975.1,286047005.7,N
1505070976.0,286047005.7,N
1505070995.8,286047004.3,N
1505071015.6,286047003.8,N
1505071035.5,286047002.0,N
1505071055.3,286047003.8,N
1505071075.1,286047007.6,P
1505071095.9,286047007.5,N
1505071115.7,286047006.3,N
1505071135.5,286047006.8,N
1505071155.3,286047004.5,N
1505071175.2,286047004.1,N
1505071195.0,286047004.2,N
1505071195.9,286047004.2,N
1505071215.7,286047003.2,N
1505071235.6,286047004.8,N
1505071255.4,286047004.5,N
1505071275.2,286047007.0,P
1505071295.1,286047000.7,N
1505071296.0,286047000.7,N
1505071315.8,286046999.0,N
1505071335.6,286047000.6,N
1505071355.5,286047000.5,N
1505071375.3,286046998.6,N
1505071395.1,286046999.1,N
1505071415.9,286046997.8,N
1505071435.7,286046998.7,N
1505071455.5,286046998.8,N
1505071475.4,286047002.1,N
1505071495.2,286047001.0,N
1505071515.0,286046999.4,N
1505071515.9,286046999.4,N
1505071535.8,286046999.6,N
1505071555.6,286046999.8,N
1505071575.4,286046998.6,N
1505071595.3,286046998.0,N
1505071615.1,286046994.9,N
1505071616.0,286046994.9,N
1505071635.8,286046998.8,N
1505071655.6,286047002.7,N
1505071675.5,286047000.3,N
1505071695.3,286047002.1,N
1505071715.1,286047002.7,N
1505071735.9,286047000.6,N
1505071755.7,286046996.9,N
1505071775.5,286046998.4,N
1505071795.4,286047001.2,N
1505071815.2,286047000.9,N
1505071835.0,286046998.1,N
1505071835.9,286046998.1,N
1505071855.8,286046996.5,N
1505071875.6,286046999.6,N
1505071895.4,286046998.8,N
1505071915.3,286047000.5,N
1505071935.1,286046998.3,N
1505071936.0,286046998.3,N
1505071955.8,286046998.2,N
1505071975.6,286046998.1,N
1505071995.5,286047000.6,N
1505072015.3,286047000.3,N
1505072035.1,286047000.5,N
1505072055.9,286047000.4,N
1505072075.7,286047000.5,N
1505072095.5,286047000.3,N
1505072115.4,286046999.8,N
1505072135.2,286047002.0,N
1505072155.0,286047000.0,N
1505072155.9,286047000.0,N
1505072175.8,286047000.6,N
1505072195.6,286047000.3,N
1505072215.4,286047001.2,N
1505072235.3,286047000.8,N
1505072255.1,286047002.0,N
1505072256.0,286047002.0,N
1505072275.8,286047003.5,N
1505072295.7,286047005.2,P
1505072315.5,286047004.4,N
1505072335.3,286047001.3,N
1505072355.2,286047007.4,P
1505072375.9,286047003.7,N
1505072395.7,286047000.7,N
1505072415.6,286046998.6,N
1505072435.4,286046999.4,N
1505072455.2,286047000.8,N
1505072475.1,286046998.7,N
1505072476.0,286046998.7,N
1505072495.8,286047001.0,N
1505072515.6,286047002.7,N
1505072535.4,286047000.2,N
1505072555.3,286046998.3,N
1505072575.1,286046996.7,N
1505072595.8,286046997.7,N
1505072615.7,286047001.2,N
1505072635.5,286047000.8,N
1505072655.3,286046998.5,N
1505072675.2,286046999.4,N
1505072695.9,286046998.8,N
1505072715.7,286046999.1,N
1505072735.6,286047001.8,N
1505072755.4,286047001.6,N
1505072775.2,286047003.4,N
1505072795.1,286047003.7,N
1505072796.0,286047003.7,N
1505072815.8,286047008.3,P
1505072835.6,286047005.8,N
1505072855.5,286047004.4,N
1505072875.3,286047004.2,N
1505072895.1,286047003.1,N
1505072915.9,286047001.7,N
1505072935.7,286046999.7,N
1505072955.5,286046999.9,N
1505072975.3,286047000.7,N
1505072995.2,286046998.1,N
1505073015.0,286046996.7,N
1505073015.9,286046996.7,N
1505073035.7,286046998.1,N
1505073055.6,286047001.2,N
1505073075.4,286046998.7,N
1505073095.2,286047001.0,N
1505073115.1,286046999.3,N
1505073116.0,286046999.3,N
1505073135.8,286046998.7,N
1505073155.6,286046996.7,N
1505073175.5,286046998.5,N
1505073195.3,286046998.8,N
1505073215.1,286046999.4,N
1505073235.9,286046998.8,N
1505073255.7,286046998.8,N
1505073275.5,286046999.0,N
1505073295.3,286046997.4,N
1505073315.2,286046996.6,N
1505073335.0,286046996.9,N
1505073335.9,286046996.9,N
1505073355.7,286046997.2,N
1505073375.6,286046994.9,N
1505073395.4,286046997.3,N
1505073415.2,286046997.1,N
1505073435.1,286046995.1,N
1505073436.0,286046995.1,N
1505073455.8,286046996.8,N
1505073475.6,286046997.3,N
1505073495.5,286046996.8,N
1505073515.3,286046999.3,N
1505073535.1,286046996.5,N
1505073555.9,286047000.6,N
1505073575.7,286046999.5,N
1505073595.5,286046998.2,N
